Regional Weather Roundup
Issued by NWS Wakefield, VA

Home | Current Version | Previous Version | Graphics & Text | Print | Product List | Glossary On
Versions: 1 2 3 4 5 6 7 8 9 10 11 12 13 14 15 16 17 18 19 20 21 22 23 24 25 26 27 28 29 30 31 32 33 34 35 36 37 38 39 40 41 42 43 44 45 46 47 48 49 50
000
ASUS41 KAKQ 281315
RWRAKQ

REGIONAL WEATHER ROUNDUP
NATIONAL WEATHER SERVICE WAKEFIELD VA
900 AM EDT SUN AUG 28 2016

Note: "fair" indicates few or no clouds below 12,000 feet with no
significant weather and/or obstructions to visibility. * = Denotes
station may not report precipitation (e.g., rain,snow,etc.),
thunder or fog.

VAZ042-051-052>054-056-281400-
NORTHERN VIRGINIA

CITY           SKY/WX    TMP DP  RH WIND       PRES   REMARKS
WASH NATIONAL  MOSUNNY   77  72  84 E7        30.26R
DULLES         MOSUNNY   76  70  82 E3        30.25S
FORT BELVOIR   MOSUNNY   78  71  81 VRB3      30.24S
QUANTICO       NOT AVBL
FREDERICKSBRG* SUNNY     76  76 100 CALM      30.23S
STAFFORD*      SUNNY     76  72  86 NE6       30.28S
WARRENTON      MOSUNNY   75  66  73 NE3       30.25S
CULPEPER*      SUNNY     75  71  88 CALM      30.26S
MANASSAS*      SUNNY     75  72  88 NE3       30.25S
LEESBURG*      CLOUDY    73  72  94 N3        30.27S
WINCHESTER     SUNNY     75  68  78 CALM      30.26R
FRONT ROYAL*   FAIR      73  70  88 CALM      30.25S
LURAY*         FAIR      72  72 100 CALM      30.27R
$$

VAZ048-049-060>072-079>083-281400-
CENTRAL AND SOUTH CENTRAL VIRGINIA

CITY           SKY/WX    TMP DP  RH WIND       PRES   REMARKS
RICHMOND       FOG       72  71  97 N8        30.23S VSB 1/4
CHESTERFIELD*  CLOUDY    75  59  57 N5        30.25R
PETERSBURG*    PTSUNNY   78  73  85 N7        30.23S
HANOVER        CLOUDY    73  71  93 CALM      30.25S FOG
TAPPAHANNOCK*  CLOUDY    75  75 100 CALM      30.24R FOG
QUINTON*       CLOUDY    72  72 100 N5        30.23R FOG
CHARLOTTSVILLE SUNNY     76  68  76 CALM      30.26R
GORDONSVILLE*  NOT AVBL
ORANGE*          N/A     73  73 100 CALM      30.27R
LOUISA*        PTSUNNY   75  73  94 CALM      30.24S
BUMPASS*       FAIR      75  73  91 CALM      30.24S
FARMVILLE*     MOSUNNY   73  73  99 CALM      30.24R
CREWE*         FAIR      72  72 100 N3        30.24S
FORT PICKETT*  NOT AVBL
CHASE CITY*    CLOUDY    71  69  95 CALM      30.23S
CLARKSVILLE*   FAIR      72  72 100 NE5       30.22S
SOUTH HILL*    PTSUNNY   73  72  96 N8        30.27S
LAWRENCEVILLE* PTSUNNY   77  73  87 N5        30.21S
EMPORIA*       CLOUDY    72  72 100 N6        30.22S FOG
$$

VAZ088>098-281400-
SOUTHEAST VIRGINIA

CITY           SKY/WX    TMP DP  RH WIND       PRES   REMARKS
NORFOLK        CLOUDY    79  74  84 NE13      30.18R
VIRGINIA BEACH PTSUNNY   86  73  65 E8        30.17R
NORFOLK NAVAL  PTSUNNY   80  72  76 NE12      30.20S
WEST POINT*    MOSUNNY   76  75  97 N3        30.24S
SALUDA*        FAIR      79  74  87 N6        30.22R
NEWPORT NEWS   CLOUDY    81  73  76 NE12      30.20R
LANGLEY AFB    MOSUNNY   82  73  75 NE13      30.19R
FORT EUSTIS    MOSUNNY   81  73  78 N7        30.18R
WILLIAMSBURG*  MOSUNNY   77  75  94 N6        30.22R
HR EXEC AP*    CLOUDY    81  73  78 E9        30.20S
FRANKLIN*      CLOUDY    73  71  93 N5        30.20S
US460-WAKEFLD  CLOUDY    74  73  97 VRB5      30.21R FOG
$$

VAZ020-022-025-037-045-281400-
WEST CENTRAL AND SOUTHWEST VIRGINIA

CITY           SKY/WX    TMP DP  RH WIND       PRES   REMARKS
STAUNTON*      MOSUNNY   73  67  83 CALM      30.30S
WAYNESBORO*    FAIR      73  66  77 CALM      30.29S
HOT SPRINGS VA SUNNY     70  63  77 SE3       30.39R
LYNCHBURG      SUNNY     75  65  70 N6        30.28R
DANVILLE       MOSUNNY   74  69  85 NE8       30.25R
SOUTH BOSTON*  CLOUDY    71  69  95 NE3       30.24R
MARTINSVILLE   MOSUNNY   74  69  81 NE3       30.28S
ROANOKE        PTSUNNY   76  66  71 N3        30.30R
BLACKSBURG     CLOUDY    72  67  84 CALM      30.35R
DUBLIN*        CLOUDY    73  70  92 CALM      30.34R
MARION*        PTSUNNY   74  68  82 E7        30.36R
HILLSVILLE*    CLOUDY    68  68  99 CALM      30.34R
RICHLANDS*     FAIR      76  69  78 CALM      30.32R
WISE*          CLOUDY    73  61  64 S3        30.33R
ABINGDON*      PTSUNNY   78  70  75 SE8       30.29R
$$

MDZ021>025-VAZ099-100-281400-
SOUTHERN MARYLAND AND THE DELMARVA PENINSULA

CITY           SKY/WX    TMP DP  RH WIND       PRES   REMARKS
PATUXENT RIVER PTSUNNY   76  71  85 NE8       30.24R
BAY BRIDGE APT PTSUNNY   75  72  88 NE5       30.25R
LEONARDTOWN    MOSUNNY   73  70  88 CALM      30.26R
DOVER          MOSUNNY   77  77 100 NE5       30.24R
GEORGETOWN     NOT AVBL
EASTON         NOT AVBL
CAMBRIDGE      SUNNY     73  70  88 N3        30.24R
SALISBURY      SUNNY     77  71  82 NE6       30.23R
OCEAN CITY     SUNNY     80  69  69 E8        30.23R
WALLOPS ISLAND SUNNY     80  62  54 NE12      30.22R
ACCOMACK*      MOSUNNY   80  72  77 E6        30.21R
$$

NCZ012>017-030>032-281400-
NORTH CENTRAL AND EASTERN NORTH CAROLINA

CITY           SKY/WX    TMP DP  RH WIND       PRES   REMARKS
ROANOKE RAPIDS CLOUDY    72  72 100 N6        30.20S FOG
RALEIGH        PTSUNNY   74  71  91 NE7       30.21R
ELIZABETH CITY PTSUNNY   81  76  84 N10       30.16R
AHOSKIE*       MOSUNNY   74  72  92 N8        30.19S
EDENTON*       CLOUDY   N/A N/A N/A N8        30.17R
CURRITUCK*       N/A     81  78  88 NE8       30.17R
KILL DEVIL HLS MOSUNNY   84  80  86 NE7       30.12S HX  97
MANTEO         PTSUNNY   82  77  87 NE8       30.13S
CAPE HATTERAS  PTSUNNY   85  75  72 E6        30.11S
TARBORO*       CLOUDY    75  74  96 N6        30.20R
GOLDSBORO      CLOUDY    75  75 100 N6        30.16R
WASHINGTON     CLOUDY    75  75  98 N7        30.16S FOG
GREENVILLE     CLOUDY    77  75  94 N8        30.19R
NEW BERN       CLOUDY    77  75  93 N7        30.16R
WILMINGTON     PTSUNNY   78  74  87 N13       30.13R
$$

VAZ048-281400-
ELSEWHERE

CITY           SKY/WX    TMP DP  RH WIND       PRES   REMARKS
HARRISBURG PA  SUNNY     75  69  81 SE5       30.26S
BALTIMORE      MOSUNNY   77  71  82 NE5       30.25S
ANNAPOLIS      MOSUNNY   78  72  81 NE3       30.25R
ANDREWS AFB    PTSUNNY   75  72  92 NE5       30.25S
PHILADELPHIA   MOSUNNY   78  69  73 CALM      30.27R
HENDERSON NC   CLOUDY    69  68  98 CALM      30.22S FOG
GREENSBORO     MOSUNNY   76  70  82 NE7       30.24R
ROCKY MOUNT    CLOUDY    74  74 100 N6        30.19S FOG
$$

VAZ100-281400-
MARINE

STATION/POSITION TIME  TEMP    WIND        PRES    WAVE   SWELL
                       AIR SEA DIR/SP/G            HT/PER HT/PER
                 (UTC) (F)     (DEG/KT/KT) (MB)    (FT/S) (FT/S)
BRANDYWINE LGT   1200           70/  7/  8   N/A
CAPE MAY NJ      1200      74   50/  2/  3 1023.3R
LEWES DE         1200      75   80/  6/  7 1023.5R
OCEAN-CITY-INLET 1200      75   90/  5/  8 1023.4R
WACHAPREAGUE VA  1200      81   50/  9/ 13 1022.2R
THOMAS POINT MD  1300   76 82   60/  4/  6 1025.8R
GOOSES REEF MD   1300   78 83   50/  6/ 10 1024.8R   1
COVE POINT MD    1200           70/  8/  9 1024.1R
SOLOMONS ISLAND  1200      84   30/  3/  4   N/A
PINEY POINT MD   1200           60/  5/  6   N/A
POTOMAC MD       1300   78 83   50/  8/ 10 1022.7R   1/ 2
CAMBRIDGE MD     1200      84   20/  5/  5 1022.9R
LEWISETTA VA     1200      82   60/  5/  7 1022.9R
RAPPAHANNOCK LGT 1200           40/ 11/ 13 1022.9R
STINGRAY PT      1300   80 83  360/ 10/ 14 1023.6R   1/ 3
YORK RVR RNG VA  1200           50/ 13/ 14 1021.8R
YORKTOWN VA      1200      83   20/  6/  9 1021.9R
JAMESTOWN VA     1300   77 85   10/  6/ 10   N/A     0
DOMINION TERM VA 1200           60/  5/  8 1022.1R
KIPTOPEKE VA     1200      80   60/  7/ 11   N/A
CHES BAY BRIDGE  1200      74   30/ 11/ 12 1021.5R
CAPE HENRY VA    1200           40/ 14/ 16   N/A
WILLOUBY STN VA  1200           50/ 12/ 14   N/A
CAPE HENRY BUOY  1212      80                N/A     4/ 6
1ST LANDING BUOY 1300   79 76   60/ 12/ 14 1021.9R   2/ 3
CAPE CHARLES BUO 1226      79                N/A     4/ 6
OFFSHORE WE BUOY 1221      80                N/A     5/ 6
64NM E OF VA BCH 1250   81 81   70/ 14/ 17 1020.4R   4/ 6   2/ 8
DUCK PIER NC     1200      78   40/ 11/ 12 1020.0R
44100 DUCK FRF   1205      80                N/A     4/ 6
44056 DUCK FRF   1211      79                N/A     4/ 6
OREGON INLET NC  1200      78   20/  7/ 10 1019.7S
HATTERAS NC      1200      83   50/  4/  5 1019.3R
DIAMOND SHLS NC  1250   83 85  100/  8/ 10 1019.5R   3/ 8   3/ 8
CAPE LOOKOUT NC  1300   81      10/  6/  7 1019.6R
$$



USA.gov is the U.S. government's official web portal to all federal, state and local government web resources and services.